Home   Weather   Huambo   Past weeks

Flag for Angola Past Weather in Huambo, Angola — Yesterday and Last 2 Weeks

Now
72 °F

Passing clouds.


Feels Like: 69 °F
Forecast: 55 / 89 °F
Wind: 6 mph from Southeast

Location: Luanda Airport

Current Time: Sep 28, 2016 at 4:37:02 AM

Latest Report: Sep 28, 2016 at 4:00 AM


Visibility: 5 mi

Pressure: 29.92 "Hg (24.52 "Hg at 1720m altitude)

Humidity: 88%

Dew Point: 68 °F

Location of HuamboLocation

Past Weather in Huambo — Graph

°F

Huambo Temperature Yesterday

Maximum temperature yesterday: 82 °F (at 12:00 PM)
Minimum temperature yesterday: 72 °F (at 10:00 PM)
Average temperature yesterday: 76 °F

High & Low Weather Summary for the Past Weeks

 TemperatureHumidityPressure
High82 °F (Sep 14, 10:00 AM)94% (Sep 14, 1:00 AM)30.04 "Hg (Sep 14, 1:00 AM)
Low68 °F (Sep 17, 10:00 PM)55% (Sep 19, 1:00 PM)29.80 "Hg (Sep 25, 3:00 PM)
Average74 °F79%29.93 "Hg
* Reported Sep 13 4:00 AM — Sep 28 3:00 AM, Huambo, Weather by CustomWeather, © 2016

Note: Actual official high and low records may vary slightly from our data, if they occured in-between our weather recording intervals... More about our weather records

Advertising

Huambo Weather History for the Previous 24 Hours

Scroll right to see more
 ConditionsComfort  
Time TempWeatherWind HumidityBarometerVisibility
3:00 AM
Wed, Sep 28
72 °FPassing clouds.7 mph88%29.92 "Hg5 mi
1:00 AM72 °FPassing clouds.5 mph88%29.95 "Hg6 mi
12:00 AM72 °FPassing clouds.5 mph88%29.95 "Hg6 mi
11:00 PM
Tue, Sep 27
72 °FPassing clouds.7 mph88%29.95 "HgN/A
10:00 PM72 °FPassing clouds.8 mph88%29.95 "HgN/A
9:00 PM73 °FPassing clouds.8 mph83%29.95 "HgN/A
8:00 PM73 °FPassing clouds.9 mph83%29.92 "HgN/A
7:00 PM75 °FPassing clouds.10 mph78%29.92 "HgN/A
6:00 PM75 °FSunny.9 mph74%29.89 "Hg10 mi
5:00 PM77 °FSunny.10 mph74%29.86 "Hg10 mi
4:00 PM79 °FSunny.9 mph65%29.86 "Hg10 mi
3:00 PM79 °FPassing clouds.12 mph70%29.89 "HgN/A
2:00 PM81 °FScattered clouds.14 mph66%29.89 "HgN/A
1:00 PM82 °FScattered clouds.9 mph58%29.92 "HgN/A
12:00 PM82 °FScattered clouds.7 mph58%29.95 "HgN/A
11:00 AM81 °FPartly sunny.5 mph62%29.98 "HgN/A
10:00 AM79 °FPartly sunny.5 mph70%29.98 "HgN/A
9:00 AM77 °FPartly sunny.3 mph74%29.98 "HgN/A
8:00 AM75 °FBroken clouds.2 mph78%29.98 "HgN/A
7:00 AM73 °FPartly sunny.2 mph83%29.95 "HgN/A
6:00 AM73 °FPartly sunny.5 mph83%29.92 "HgN/A
5:00 AM73 °FPassing clouds.5 mph83%29.89 "HgN/A
4:00 AM73 °FPassing clouds.5 mph83%29.89 "HgN/A
Weather by CustomWeather, © 2016

See weather overviewHow to use our weather pages